Zurück zum Katalog

STARLINK-36447

AktivKommunikationVLEO
NORAD 67425·PAYLOAD·🇺🇸 United States

Gestartet Jan 12, 2026 von Cape Canaveral Space Force Station

Loading…

Nächste Überflüge (nächste 24 Stunden)

TLE

AktuellSource: CelesTrak SupGP

Epoche: Sep 14, 2026, 16:01 UTC

1 67425C 26005X   26257.66784722 -.00035234  00000+0 -12765-2 0  2579
2 67425  43.0025 250.6655 0001353 270.8524 283.1206 15.27588159    13

Verfolge STARLINK-36447 in Echtzeit mit AllMySat

Download on the App Store